DLH912 LIRF-LSZH

Flight info

Callsign DLH912
Flight time N/A
Altitude 36000
Route SOVAN DCT AMTEL DCT PEPAG DCT CANNE Z651 DETRI/N0444F300 Z651 KELIP
Aircraft A320/M-SDE3FGHIRWY/LB1

Departure

Time 2026-05-06 13:25
Airport Rome–Fiumicino Leonardo da Vinci International Airport (LIRF)

Arrival

Time N/A
Airport Zürich Airport (LSZH)
Time Latitude Longitude Altitude Speed Heading
2026-05-06 13:16 41.79794 12.24218 14 ft 0 kts 70°
2026-05-06 13:19 41.79801 12.24241 16 ft 6 kts 69°
2026-05-06 13:19 41.79820 12.24278 14 ft 10 kts 44°
2026-05-06 13:19 41.79891 12.24223 15 ft 19 kts 284°
2026-05-06 13:20 41.79913 12.24036 14 ft 19 kts 260°
2026-05-06 13:20 41.79865 12.23859 14 ft 21 kts 250°
2026-05-06 13:20 41.79853 12.23681 15 ft 17 kts 317°
2026-05-06 13:20 41.79959 12.23633 15 ft 15 kts 341°
2026-05-06 13:21 41.80050 12.23594 18 ft 15 kts 342°
2026-05-06 13:21 41.80159 12.23549 17 ft 17 kts 343°
2026-05-06 13:21 41.80314 12.23486 16 ft 32 kts 342°
2026-05-06 13:21 41.80566 12.23382 15 ft 41 kts 342°
2026-05-06 13:22 41.80833 12.23266 16 ft 40 kts 342°
2026-05-06 13:22 41.81100 12.23154 15 ft 40 kts 342°
2026-05-06 13:22 41.81365 12.23043 16 ft 40 kts 342°
2026-05-06 13:22 41.81532 12.22898 17 ft 25 kts 296°
2026-05-06 13:23 41.81550 12.22844 15 ft 0 kts 295°
2026-05-06 13:24 41.81561 12.22811 15 ft 13 kts 292°
2026-05-06 13:24 41.81518 12.22659 13 ft 20 kts 193°
2026-05-06 13:24 41.81389 12.22706 13 ft 23 kts 162°
2026-05-06 13:24 41.81023 12.22860 16 ft 90 kts 162°
2026-05-06 13:25 41.80239 12.23189 18 ft 144 kts 163°
2026-05-06 13:25 41.79154 12.23649 202 ft 176 kts 162°
2026-05-06 13:25 41.77939 12.24178 743 ft 191 kts 162°
2026-05-06 13:25 41.76615 12.24750 1316 ft 207 kts 166°
2026-05-06 13:26 41.75111 12.24695 1802 ft 234 kts 201°
2026-05-06 13:26 41.73702 12.23477 2409 ft 254 kts 220°
2026-05-06 13:26 41.72407 12.21820 3324 ft 261 kts 225°
2026-05-06 13:26 41.71123 12.20056 3814 ft 266 kts 225°
2026-05-06 13:27 41.69945 12.18155 3967 ft 266 kts 243°
2026-05-06 13:27 41.69636 12.15742 4020 ft 268 kts 278°
2026-05-06 13:27 41.70418 12.13513 4023 ft 270 kts 314°
2026-05-06 13:27 41.72000 12.12188 4021 ft 271 kts 338°
2026-05-06 13:28 41.73645 12.11032 4014 ft 272 kts 319°
2026-05-06 13:28 41.74763 12.08992 4354 ft 278 kts 297°
2026-05-06 13:28 41.75686 12.06743 5416 ft 276 kts 298°
2026-05-06 13:28 41.76657 12.04504 6401 ft 280 kts 299°
2026-05-06 13:29 41.77656 12.02250 7336 ft 283 kts 299°
2026-05-06 13:29 41.78664 11.99979 8277 ft 285 kts 298°
2026-05-06 13:29 41.79680 11.97683 9196 ft 288 kts 298°
2026-05-06 13:29 41.80696 11.95362 10104 ft 290 kts 297°
2026-05-06 13:30 41.81745 11.92939 10531 ft 312 kts 297°
2026-05-06 13:30 41.82853 11.90362 10828 ft 334 kts 297°
2026-05-06 13:30 41.84099 11.87665 11451 ft 346 kts 306°
2026-05-06 13:30 41.85922 11.85506 12222 ft 357 kts 326°
2026-05-06 13:31 41.88276 11.84360 12999 ft 368 kts 348°
2026-05-06 13:31 41.90867 11.84511 13733 ft 380 kts 12°
2026-05-06 13:31 41.93319 11.85918 14443 ft 388 kts 26°
2026-05-06 13:31 41.95717 11.87623 15131 ft 392 kts 26°
2026-05-06 13:32 41.98134 11.89371 15805 ft 397 kts 26°
2026-05-06 13:32 42.00537 11.91115 16453 ft 401 kts 26°
2026-05-06 13:32 42.03007 11.92905 17100 ft 405 kts 26°
2026-05-06 13:32 42.05502 11.94707 17745 ft 409 kts 26°
2026-05-06 13:33 42.08023 11.96521 18367 ft 413 kts 26°
2026-05-06 13:33 42.10574 11.98348 18984 ft 417 kts 26°
2026-05-06 13:33 42.13149 12.00191 19566 ft 421 kts 25°
2026-05-06 13:33 42.15843 12.01752 20094 ft 423 kts 15°
2026-05-06 13:34 42.18697 12.02675 20666 ft 422 kts
2026-05-06 13:34 42.21579 12.02933 21195 ft 421 kts 355°
2026-05-06 13:34 42.24485 12.02531 21713 ft 420 kts 346°
2026-05-06 13:34 42.27381 12.01866 22206 ft 423 kts 346°
2026-05-06 13:35 42.30297 12.01203 22700 ft 426 kts 346°
2026-05-06 13:35 42.33237 12.00542 23164 ft 429 kts 346°
2026-05-06 13:35 42.36188 11.99882 23613 ft 432 kts 346°
2026-05-06 13:35 42.39166 11.99215 24035 ft 435 kts 346°
2026-05-06 13:36 42.42160 11.98543 24445 ft 438 kts 346°
2026-05-06 13:36 42.45177 11.97860 24832 ft 441 kts 346°
2026-05-06 13:36 42.48170 11.97183 25204 ft 444 kts 346°
2026-05-06 13:36 42.51225 11.96492 25574 ft 447 kts 346°
2026-05-06 13:37 42.54300 11.95797 25931 ft 449 kts 346°
2026-05-06 13:37 42.57394 11.95097 26282 ft 452 kts 346°
2026-05-06 13:37 42.60498 11.94395 26619 ft 455 kts 346°
2026-05-06 13:37 42.63633 11.93682 26939 ft 457 kts 346°
2026-05-06 13:38 42.66779 11.92965 27270 ft 460 kts 345°
2026-05-06 13:38 42.69944 11.92245 27589 ft 463 kts 346°
2026-05-06 13:38 42.73085 11.91531 27892 ft 465 kts 345°
2026-05-06 13:38 42.76284 11.90804 28185 ft 468 kts 345°
2026-05-06 13:39 42.79500 11.90073 28466 ft 470 kts 345°
2026-05-06 13:39 42.82677 11.89082 28732 ft 466 kts 337°
2026-05-06 13:39 42.85690 11.87498 28987 ft 463 kts 328°
2026-05-06 13:39 42.88529 11.85464 29240 ft 462 kts 326°
2026-05-06 13:40 42.91363 11.83382 29499 ft 464 kts 326°
2026-05-06 13:40 42.94215 11.81298 29726 ft 466 kts 326°
2026-05-06 13:40 42.97078 11.79211 29955 ft 467 kts 326°
2026-05-06 13:40 42.99909 11.77147 30202 ft 468 kts 326°
2026-05-06 13:41 43.02784 11.75047 30500 ft 467 kts 325°
2026-05-06 13:41 43.05648 11.72952 30811 ft 467 kts 325°
2026-05-06 13:41 43.08488 11.70869 31084 ft 467 kts 325°
2026-05-06 13:41 43.11350 11.68763 31357 ft 467 kts 325°
2026-05-06 13:42 43.14203 11.66655 31624 ft 467 kts 325°
2026-05-06 13:42 43.17058 11.64541 31907 ft 466 kts 325°
2026-05-06 13:42 43.19912 11.62428 32183 ft 466 kts 325°
2026-05-06 13:42 43.22717 11.60321 32449 ft 465 kts 323°
2026-05-06 13:43 43.25503 11.58077 32714 ft 464 kts 322°
2026-05-06 13:43 43.28233 11.55732 32999 ft 462 kts 320°
2026-05-06 13:43 43.30923 11.53329 33268 ft 461 kts 320°
2026-05-06 13:43 43.33599 11.50905 33511 ft 461 kts 320°
2026-05-06 13:44 43.36281 11.48486 33766 ft 461 kts 320°
2026-05-06 13:44 43.38972 11.46090 34026 ft 461 kts 320°
2026-05-06 13:44 43.41679 11.43712 34300 ft 461 kts 320°
2026-05-06 13:44 43.44118 11.41588 34532 ft 462 kts 321°
2026-05-06 13:45 43.46834 11.39232 34772 ft 461 kts 321°
2026-05-06 13:45 43.52239 11.34530 35268 ft 460 kts 321°
2026-05-06 13:45 43.54932 11.32171 35485 ft 459 kts 321°
2026-05-06 13:46 43.57627 11.29804 35722 ft 458 kts 321°
2026-05-06 13:46 43.60314 11.27441 35887 ft 458 kts 321°
2026-05-06 13:46 43.65647 11.22733 35925 ft 458 kts 320°
2026-05-06 13:47 43.71013 11.17978 35926 ft 458 kts 320°
2026-05-06 13:47 43.76383 11.13224 35924 ft 459 kts 320°
2026-05-06 13:48 43.81759 11.08463 35927 ft 459 kts 320°
2026-05-06 13:48 43.87132 11.03698 35924 ft 459 kts 321°
2026-05-06 13:49 43.92465 10.98951 35928 ft 458 kts 320°
2026-05-06 13:49 43.97822 10.94155 35929 ft 458 kts 320°
2026-05-06 13:50 44.03176 10.89356 35929 ft 458 kts 320°
2026-05-06 13:50 44.08537 10.84556 35934 ft 458 kts 320°
2026-05-06 13:51 44.13847 10.79788 35939 ft 458 kts 320°
2026-05-06 13:51 44.19174 10.74996 35948 ft 458 kts 320°
2026-05-06 13:52 44.24518 10.70169 35953 ft 458 kts 320°
2026-05-06 13:52 44.29864 10.65324 35958 ft 458 kts 320°
2026-05-06 13:53 44.35174 10.60508 35959 ft 458 kts 320°
2026-05-06 13:53 44.40517 10.55651 35956 ft 458 kts 320°
2026-05-06 13:54 44.45855 10.50790 35952 ft 458 kts 320°
2026-05-06 13:54 44.51198 10.45916 35942 ft 458 kts 320°
2026-05-06 13:55 44.56500 10.41065 35932 ft 458 kts 320°
2026-05-06 13:55 44.61833 10.36176 35916 ft 458 kts 320°
2026-05-06 13:56 44.67172 10.31276 35903 ft 459 kts 320°
2026-05-06 13:56 44.72513 10.26361 35890 ft 459 kts 320°
2026-05-06 13:57 44.77814 10.21470 35881 ft 459 kts 320°
2026-05-06 13:57 44.83142 10.16544 35869 ft 458 kts 320°
2026-05-06 13:58 44.88474 10.11602 35863 ft 459 kts 320°
2026-05-06 13:58 44.93806 10.06644 35852 ft 459 kts 320°
2026-05-06 13:59 44.99140 10.01686 35858 ft 459 kts 319°
2026-05-06 13:59 45.04440 9.96753 35851 ft 459 kts 319°
2026-05-06 14:00 45.09774 9.91763 35850 ft 459 kts 319°
2026-05-06 14:00 45.15094 9.86756 35844 ft 460 kts 319°
2026-05-06 14:01 45.20427 9.81739 35845 ft 460 kts 319°
2026-05-06 14:01 45.25721 9.76749 35845 ft 460 kts 319°
2026-05-06 14:02 45.31054 9.71718 35846 ft 460 kts 319°
2026-05-06 14:02 45.36391 9.66682 35854 ft 461 kts 318°
2026-05-06 14:03 45.41676 9.61666 35847 ft 461 kts 318°
2026-05-06 14:03 45.47008 9.56590 35852 ft 461 kts 318°
2026-05-06 14:04 45.52307 9.51539 35863 ft 461 kts 318°
2026-05-06 14:04 45.57641 9.46448 35853 ft 461 kts 318°
2026-05-06 14:05 45.62980 9.41346 35851 ft 462 kts 318°
2026-05-06 14:05 45.68313 9.36233 35869 ft 462 kts 318°
2026-05-06 14:06 45.73559 9.31187 35866 ft 462 kts 318°
2026-05-06 14:06 45.78899 9.26044 35885 ft 463 kts 318°
2026-05-06 14:07 45.84237 9.20902 35885 ft 462 kts 318°
2026-05-06 14:07 45.89561 9.15741 35888 ft 462 kts 318°
2026-05-06 14:08 45.94877 9.10567 35886 ft 461 kts 317°
2026-05-06 14:08 46.00144 9.05405 35885 ft 461 kts 317°
2026-05-06 14:09 46.05349 9.00047 35888 ft 460 kts 316°
2026-05-06 14:09 46.10500 8.94589 35890 ft 460 kts 316°
2026-05-06 14:10 46.15961 8.89627 35706 ft 474 kts 329°
2026-05-06 14:10 46.19057 8.88045 35460 ft 484 kts 339°
2026-05-06 14:10 46.22404 8.87217 35213 ft 493 kts 348°
2026-05-06 14:11 46.25821 8.86711 34962 ft 494 kts 348°
2026-05-06 14:11 46.29248 8.86212 34714 ft 496 kts 348°
2026-05-06 14:11 46.32685 8.85711 34477 ft 497 kts 348°
2026-05-06 14:11 46.36128 8.85205 34219 ft 498 kts 348°
2026-05-06 14:12 46.39570 8.84690 33956 ft 498 kts 347°
2026-05-06 14:12 46.43026 8.84167 33706 ft 499 kts 347°
2026-05-06 14:12 46.46484 8.83638 33460 ft 500 kts 348°
2026-05-06 14:12 46.49896 8.83119 33215 ft 500 kts 348°
2026-05-06 14:13 46.53360 8.82597 32958 ft 500 kts 348°
2026-05-06 14:13 46.56821 8.82076 32703 ft 501 kts 348°
2026-05-06 14:13 46.60285 8.81552 32458 ft 501 kts 348°
2026-05-06 14:13 46.63760 8.81024 32207 ft 502 kts 348°
2026-05-06 14:14 46.67230 8.80498 31957 ft 502 kts 348°
2026-05-06 14:14 46.70704 8.79975 31706 ft 502 kts 348°
2026-05-06 14:14 46.74176 8.79451 31454 ft 501 kts 348°
2026-05-06 14:14 46.77646 8.78921 31201 ft 501 kts 348°
2026-05-06 14:15 46.81065 8.78396 30959 ft 502 kts 348°
2026-05-06 14:15 46.84540 8.77861 30705 ft 502 kts 348°
2026-05-06 14:15 46.88009 8.77326 30456 ft 503 kts 348°
2026-05-06 14:15 46.91495 8.76791 30202 ft 503 kts 348°
2026-05-06 14:16 46.94965 8.76259 29950 ft 503 kts 349°
2026-05-06 14:16 46.98446 8.75723 29701 ft 502 kts 348°
2026-05-06 14:16 47.01914 8.75181 29446 ft 501 kts 348°
2026-05-06 14:16 47.05373 8.74634 29165 ft 498 kts 348°
2026-05-06 14:17 47.08766 8.74055 27894 ft 489 kts 347°
2026-05-06 14:17 47.12138 8.73301 26247 ft 489 kts 346°
2026-05-06 14:17 47.15453 8.72411 24976 ft 479 kts 345°
2026-05-06 14:17 47.18593 8.71498 24562 ft 452 kts 345°
2026-05-06 14:18 47.21567 8.70630 24414 ft 422 kts 345°
2026-05-06 14:18 47.24382 8.69891 24173 ft 401 kts 351°
2026-05-06 14:18 47.27139 8.70147 23464 ft 397 kts 12°
2026-05-06 14:18 47.29678 8.71848 22202 ft 407 kts 35°
2026-05-06 14:19 47.31999 8.74317 20774 ft 417 kts 37°
2026-05-06 14:19 47.34361 8.76879 19262 ft 427 kts 37°